{"data":{"norad_id":57811,"epoch":"2026-05-25T00:39:20.481696Z","epoch_age_seconds":73468,"freshness":"FRESH","line1":"1 57811U 23138D   26145.02732039  .00002665  00000+0  10626-3 0  9999","line2":"2 57811  43.0032 163.0270 0001185 255.6261 104.4459 15.27601235150417","mean_motion":15.27601235,"eccentricity":0.0001185,"inclination_deg":43.0032,"raan_deg":163.027,"arg_perigee_deg":255.6261,"mean_anomaly_deg":104.4459,"bstar":0.00010626,"rev_number":15041,"period_min":94.26543832298,"perigee_km":482.17246852936,"apogee_km":483.7985545646,"semimajor_km":6861.122511547,"source":"CELESTRAK","updated_at":"2026-05-25T13:38:18.408883Z"}}